Weather History for Jackson, WY

Change the Weather History Date:

Tuesday, May 8, 2012

  Actual Average Record
Temperature  
Mean Temperature 45 °F -  
Max Temperature 66 °F 57 °F 75 °F (1987)
Min Temperature 24 °F 29 °F 16 °F (1979)
Degree Days  
Heating Degree Days 20    
Moisture  
Dew Point 21 °F    
Average Humidity 50    
Maximum Humidity 86    
Minimum Humidity 16    
Precipitation  
Precipitation 0.00 in - - ()
Sea Level Pressure  
Sea Level Pressure 30.24 in    
Wind  
Wind Speed 3 mph (North)    
Max Wind Speed 10 mph    
Max Gust Speed -    
Visibility 10 miles    
Events      
Averages and records for this station are not official NWS values.
T = Trace of Precipitation, MM = Missing Value Source: NWS Daily Summary

Daily Weather History Graph

Daily Weather History Graph

Search for Another Location

Airport:

Trip Planner

Search our weather history database for the weather conditions in past years. The results will help you decide how hot, cold, wet, or windy it might be!

Date:

Astronomy

May. 08, 2012 Rise Set
Actual Time 6:05 AM MDT 8:34 PM MDT
Civil Twilight 5:33 AM MDT 9:06 PM MDT
Nautical Twilight 4:52 AM MDT 9:47 PM MDT
Astronomical Twilight 4:07 AM MDT 10:32 PM MDT
Moon 11:50 PM MDT (5/8) 8:14 AM MDT (5/8)
Length of Visible Light 15h 33m
Length of Day
14h 28m
Waning Gibbous, 90% of the Moon is Illuminated
May 8
Waning Gibbous
May 12
Last Quarter
May 20
New
May 28
First Quarter
Jun 4
Full

Hourly Weather History & Observations

Time (MDT) Temp. Windchill Dew Point Humidity Pressure Visibility Wind Dir Wind Speed Gust Speed Precip Events Conditions
12:15 AM 37.4 °F - 19.4 °F 48% 30.27 in 10.0 mi Calm Calm - N/A   Clear
12:35 AM 35.6 °F - 21.2 °F 56% 30.27 in 10.0 mi Calm Calm - N/A   Clear
12:55 AM 33.8 °F 27.7 °F 19.4 °F 56% 30.28 in 10.0 mi NNW 6.9 mph - N/A   Clear
1:15 AM 35.6 °F - 21.2 °F 56% 30.28 in 10.0 mi Calm Calm - N/A   Clear
1:35 AM 33.8 °F 27.7 °F 21.2 °F 60% 30.28 in 10.0 mi NNE 6.9 mph - N/A   Clear
1:55 AM 35.6 °F 30.7 °F 19.4 °F 52% 30.28 in 10.0 mi NE 5.8 mph - N/A   Clear
2:15 AM 33.8 °F 28.6 °F 19.4 °F 56% 30.28 in 10.0 mi North 5.8 mph - N/A   Clear
2:35 AM 35.6 °F 32.8 °F 19.4 °F 52% 30.28 in 10.0 mi NE 3.5 mph - N/A   Clear
2:55 AM 33.8 °F 28.6 °F 21.2 °F 60% 30.29 in 10.0 mi NNE 5.8 mph - N/A   Clear
3:15 AM 32.0 °F 27.5 °F 21.2 °F 64% 30.28 in 10.0 mi North 4.6 mph - N/A   Clear
3:35 AM 30.2 °F 24.3 °F 23.0 °F 75% 30.28 in 10.0 mi North 5.8 mph - N/A   Clear
3:55 AM 28.4 °F 21.2 °F 21.2 °F 74% 30.29 in 10.0 mi NNW 6.9 mph - N/A   Clear
4:15 AM 26.6 °F - 21.2 °F 80% 30.29 in 10.0 mi Calm Calm - N/A   Clear
4:35 AM 28.4 °F - 23.0 °F 80% 30.29 in 10.0 mi Calm Calm - N/A   Clear
4:55 AM 24.8 °F - 21.2 °F 86% 30.29 in 10.0 mi Calm Calm - N/A   Clear
5:15 AM 26.6 °F - 21.2 °F 80% 30.29 in 10.0 mi Calm Calm - N/A   Clear
5:35 AM 26.6 °F 21.2 °F 21.2 °F 80% 30.30 in 10.0 mi North 4.6 mph - N/A   Clear
6:15 AM 26.6 °F 22.6 °F 21.2 °F 80% 30.30 in 10.0 mi NNE 3.5 mph - N/A   Clear
6:35 AM 24.8 °F 20.5 °F 19.4 °F 80% 30.30 in 10.0 mi ENE 3.5 mph - N/A   Clear
6:51 AM 26.6 °F - 21.2 °F 80% 30.30 in 10.0 mi Calm Calm - N/A   Clear
7:51 AM 33.8 °F - 23.0 °F 65% 30.31 in 10.0 mi Calm Calm - N/A   Clear
8:55 AM 39.2 °F - 21.2 °F 49% 30.31 in 10.0 mi Calm Calm - N/A   Clear
9:51 AM 44.6 °F 43.1 °F 19.4 °F 37% 30.30 in 10.0 mi SSE 3.5 mph - N/A   Clear
10:55 AM 50.0 °F - 21.2 °F 32% 30.28 in 10.0 mi ESE 3.5 mph - N/A   Clear
11:53 AM 55.4 °F - 21.2 °F 26% 30.26 in 10.0 mi SSE 4.6 mph - N/A   Clear
12:54 PM 57.2 °F - 17.6 °F 21% 30.23 in 10.0 mi Calm Calm - N/A   Clear
1:55 PM 60.8 °F - 19.4 °F 20% 30.21 in 10.0 mi North 6.9 mph - N/A   Clear
2:59 PM 62.6 °F - 17.6 °F 18% 30.19 in 10.0 mi SW 5.8 mph - N/A   Clear
3:54 PM 64.4 °F - 17.6 °F 16% 30.17 in 10.0 mi North 3.5 mph - N/A   Clear
4:51 PM 66.2 °F - 19.4 °F 17% 30.15 in 10.0 mi SW 10.4 mph - N/A   Clear
5:54 PM 66.2 °F - 19.4 °F 17% 30.14 in 10.0 mi West 10.4 mph - N/A   Clear
6:58 PM 64.4 °F - 21.2 °F 19% 30.14 in 10.0 mi WNW 6.9 mph - N/A   Clear
7:51 PM 60.8 °F - 21.2 °F 22% 30.14 in 10.0 mi WNW 8.1 mph - N/A   Clear
8:51 PM 55.4 °F - 19.4 °F 25% 30.16 in 10.0 mi South 4.6 mph - N/A   Clear
9:35 PM 53.6 °F - 19.4 °F 26% 30.17 in 10.0 mi SW 4.6 mph - N/A   Clear
9:55 PM 50.0 °F - 21.2 °F 32% 30.17 in 10.0 mi Calm Calm - N/A   Clear
10:16 PM 48.2 °F - 19.4 °F 32% 30.17 in 10.0 mi NNW 4.6 mph - N/A   Clear
10:35 PM 48.2 °F - 21.2 °F 34% 30.18 in 10.0 mi Calm Calm - N/A   Clear
10:55 PM 41.0 °F 36.4 °F 26.6 °F 57% 30.18 in 10.0 mi North 6.9 mph - N/A   Clear
11:15 PM 39.2 °F 33.6 °F 26.6 °F 61% 30.18 in 10.0 mi North 8.1 mph - N/A   Clear
11:35 PM 37.4 °F 32.8 °F 26.6 °F 65% 30.18 in 10.0 mi NNE 5.8 mph - N/A   Clear
11:55 PM 37.4 °F 30.8 °F 26.6 °F 65% 30.18 in 10.0 mi North 9.2 mph - N/A   Clear